Medford, WI

9:48 AM CDT on September 25, 2017 (GMT -0500)
Taylor County

Weather History for KMDZ - April, 2014

Change the Weather History Date:

Wednesday, April 2, 2014

  Actual Average Record
Temperature  
Mean Temperature 27 °F -  
Max Temperature 38 °F 43 °F 71 °F (1963)
Min Temperature 16 °F 25 °F 9 °F (1975)
Degree Days  
Heating Degree Days 38    
Moisture  
Dew Point 18 °F    
Average Humidity 65    
Maximum Humidity 86    
Minimum Humidity 45    
Precipitation  
Precipitation 0.00 in - - ()
Sea Level Pressure  
Sea Level Pressure 30.12 in    
Wind  
Wind Speed 4 mph (NE)    
Max Wind Speed 8 mph    
Max Gust Speed -    
Visibility 10 miles    
Events      
Averages and records for this station are not official NWS values.
T = Trace of Precipitation, MM = Missing Value Source: NWS Daily Summary

Daily Weather History Graph

Daily Weather History Graph

Search for Another Location

Airport or City:

Trip Planner

Search our weather history database for the weather conditions in past years. The results will help you decide how hot, cold, wet, or windy it might be!

Date:

Astronomy

Apr. 02, 2014 Rise Set
Actual Time 6:39 AM CDT 7:30 PM CDT
Civil Twilight 6:10 AM CDT 8:00 PM CDT
Nautical Twilight 5:34 AM CDT 8:35 PM CDT
Astronomical Twilight 4:57 AM CDT 9:13 PM CDT
Moon 8:16 AM CDT (4/2) 11:02 PM CDT (4/2)
Length of Visible Light 13h 50m
Length of Day
12h 50m
Waxing Crescent, 10% of the Moon is Illuminated
Apr 2
Waxing Crescent
Apr 7
First Quarter
Apr 15
Full
Apr 22
Last Quarter
Apr 29
New

Hourly Weather History & Observations

Time (CDT) Temp. Windchill Dew Point Humidity Pressure Visibility Wind Dir Wind Speed Gust Speed Precip Events Conditions
12:15 AM 22.3 °F 14.9 °F 16.7 °F 79% 30.03 in 10.0 mi West 5.8 mph - N/A   Clear
12:35 AM 22.1 °F 14.7 °F 16.7 °F 80% 30.04 in 10.0 mi WNW 5.8 mph - N/A   Clear
12:55 AM 20.8 °F 14.4 °F 16.0 °F 81% 30.04 in 10.0 mi WNW 4.6 mph - N/A   Clear
1:15 AM 21.4 °F 13.8 °F 16.3 °F 81% 30.05 in 10.0 mi WNW 5.8 mph - N/A   Clear
1:35 AM 21.2 °F 13.6 °F 16.3 °F 82% 30.05 in 10.0 mi WNW 5.8 mph - N/A   Clear
1:55 AM 20.7 °F 14.2 °F 15.8 °F 81% 30.06 in 10.0 mi WNW 4.6 mph - N/A   Clear
2:15 AM 19.9 °F 12.1 °F 15.4 °F 83% 30.06 in 10.0 mi NW 5.8 mph - N/A   Clear
2:35 AM 20.8 °F 13.2 °F 14.9 °F 78% 30.06 in 10.0 mi NW 5.8 mph - N/A   Clear
2:55 AM 20.1 °F 11.3 °F 14.9 °F 80% 30.06 in 10.0 mi NNW 6.9 mph - N/A   Clear
3:15 AM 19.8 °F 10.8 °F 14.5 °F 80% 30.07 in 10.0 mi NNW 6.9 mph - N/A   Clear
3:35 AM 19.8 °F 11.9 °F 14.4 °F 80% 30.08 in 10.0 mi NNW 5.8 mph - N/A   Clear
3:55 AM 19.2 °F 12.5 °F 14.4 °F 81% 30.08 in 10.0 mi North 4.6 mph - N/A   Clear
4:15 AM 18.9 °F 10.8 °F 14.0 °F 81% 30.08 in 10.0 mi North 5.8 mph - N/A   Clear
4:35 AM 18.5 °F 13.3 °F 14.0 °F 83% 30.08 in 10.0 mi North 3.5 mph - N/A   Clear
4:55 AM 17.4 °F - 13.3 °F 84% 30.09 in 10.0 mi Calm Calm - N/A   Clear
5:15 AM 17.6 °F 12.3 °F 13.8 °F 85% 30.09 in 10.0 mi North 3.5 mph - N/A   Clear
5:35 AM 16.7 °F 9.6 °F 13.1 °F 86% 30.10 in 10.0 mi NNW 4.6 mph - N/A   Clear
5:55 AM 16.5 °F 11.0 °F 13.1 °F 86% 30.10 in 10.0 mi NNW 3.5 mph - N/A   Clear
6:15 AM 16.3 °F 10.8 °F 12.9 °F 86% 30.10 in 10.0 mi NNW 3.5 mph - N/A   Clear
7:35 AM 16.7 °F 11.2 °F 12.6 °F 84% 30.12 in 10.0 mi North 3.5 mph - N/A   Clear
7:55 AM 18.3 °F - 13.1 °F 80% 30.13 in 10.0 mi Calm Calm - N/A   Clear
8:15 AM 19.4 °F - 13.5 °F 78% 30.14 in 10.0 mi Calm Calm - N/A   Clear
8:35 AM 21.2 °F 14.9 °F 14.0 °F 74% 30.14 in 10.0 mi NNE 4.6 mph - N/A   Clear
8:55 AM 22.1 °F - 14.2 °F 72% 30.15 in 10.0 mi Calm Calm - N/A   Clear
9:15 AM 23.5 °F - 14.7 °F 69% 30.15 in 10.0 mi Calm Calm - N/A   Clear
9:35 AM 24.4 °F - 15.1 °F 68% 30.16 in 10.0 mi Calm Calm - N/A   Clear
9:55 AM 25.7 °F - 15.3 °F 65% 30.17 in 10.0 mi Calm Calm - N/A   Clear
10:15 AM 27.5 °F - 14.9 °F 59% 30.17 in 10.0 mi Calm Calm - N/A   Clear
10:35 AM 28.2 °F - 15.6 °F 59% 30.17 in 10.0 mi Calm Calm - N/A   Clear
10:55 AM 28.0 °F - 15.3 °F 59% 30.17 in 10.0 mi Calm Calm - N/A   Clear
11:35 AM 30.7 °F - 16.0 °F 54% 30.17 in 10.0 mi Calm Calm - N/A   Clear
11:55 AM 30.7 °F - 16.3 °F 55% 30.16 in 10.0 mi Calm Calm - N/A   Clear
12:15 PM 32.0 °F - 17.2 °F 55% 30.17 in 10.0 mi Calm Calm - N/A   Clear
12:55 PM 35.1 °F - 16.2 °F 46% 30.16 in 10.0 mi Calm Calm - N/A   Clear
1:15 PM 33.8 °F 27.7 °F 18.9 °F 54% 30.16 in 10.0 mi SSE 6.9 mph - N/A   Clear
1:35 PM 33.3 °F 27.1 °F 21.4 °F 62% 30.17 in 10.0 mi South 6.9 mph - N/A   Clear
1:55 PM 33.3 °F 27.1 °F 20.5 °F 59% 30.16 in 10.0 mi SSE 6.9 mph - N/A   Clear
2:15 PM 33.8 °F 29.6 °F 21.4 °F 60% 30.16 in 10.0 mi South 4.6 mph - N/A   Clear
2:35 PM 34.0 °F 29.8 °F 20.3 °F 57% 30.15 in 10.0 mi South 4.6 mph - N/A   Clear
2:55 PM 34.7 °F 29.6 °F 21.0 °F 57% 30.15 in 10.0 mi South 5.8 mph - N/A   Clear
3:15 PM 34.7 °F 28.8 °F 21.0 °F 57% 30.15 in 10.0 mi South 6.9 mph - N/A   Clear
3:35 PM 34.7 °F 28.8 °F 21.2 °F 58% 30.14 in 10.0 mi South 6.9 mph - N/A   Clear
3:55 PM 35.1 °F 30.1 °F 21.7 °F 58% 30.14 in 10.0 mi South 5.8 mph - N/A   Clear
4:15 PM 35.6 °F 32.8 °F 21.6 °F 57% 30.13 in 10.0 mi South 3.5 mph - N/A   Clear
4:35 PM 36.1 °F - 19.8 °F 51% 30.12 in 10.0 mi Calm Calm - N/A   Clear
4:55 PM 37.6 °F - 19.2 °F 48% 30.12 in 10.0 mi Calm Calm - N/A   Clear
5:15 PM 38.5 °F - 18.7 °F 45% 30.12 in 10.0 mi Calm Calm - N/A   Clear
5:35 PM 37.8 °F - 19.0 °F 47% 30.12 in 10.0 mi Calm Calm - N/A   Clear
5:55 PM 38.1 °F - 18.9 °F 46% 30.12 in 10.0 mi Calm Calm - N/A   Clear
6:15 PM 37.8 °F - 18.9 °F 47% 30.12 in 10.0 mi Calm Calm - N/A   Clear
6:35 PM 35.8 °F - 21.0 °F 55% 30.12 in 10.0 mi Calm Calm - N/A   Clear
6:55 PM 36.9 °F - 20.7 °F 52% 30.13 in 10.0 mi Calm Calm - N/A   Clear
7:15 PM 36.1 °F - 20.3 °F 53% 30.12 in 10.0 mi Calm Calm - N/A   Clear
7:35 PM 35.4 °F - 19.4 °F 52% 30.10 in 10.0 mi Calm Calm - N/A   Clear
7:55 PM 33.8 °F 30.8 °F 21.2 °F 60% 30.11 in 10.0 mi East 3.5 mph - N/A   Clear
8:15 PM 34.0 °F 29.8 °F 21.0 °F 59% 30.12 in 10.0 mi East 4.6 mph - N/A   Scattered Clouds
8:35 PM 32.9 °F 29.8 °F 22.5 °F 65% 30.12 in 10.0 mi ENE 3.5 mph - N/A   Scattered Clouds
8:55 PM 32.9 °F 28.5 °F 23.0 °F 67% 30.12 in 10.0 mi ENE 4.6 mph - N/A   Mostly Cloudy
9:15 PM 32.7 °F 28.3 °F 23.0 °F 67% 30.12 in 10.0 mi ENE 4.6 mph - N/A   Mostly Cloudy
9:35 PM 32.9 °F 27.5 °F 23.9 °F 69% 30.11 in 10.0 mi ENE 5.8 mph - N/A   Mostly Cloudy
9:55 PM 35.6 °F 32.8 °F 19.2 °F 51% 30.12 in 10.0 mi ESE 3.5 mph - N/A   Overcast
10:15 PM 36.0 °F 32.1 °F 18.1 °F 48% 30.12 in 10.0 mi East 4.6 mph - N/A   Overcast
10:35 PM 36.1 °F 30.6 °F 18.1 °F 48% 30.12 in 10.0 mi ESE 6.9 mph - N/A   Overcast
10:55 PM 35.6 °F 29.2 °F 19.2 °F 51% 30.11 in 10.0 mi East 8.1 mph - N/A   Overcast
11:15 PM 35.2 °F 31.2 °F 20.1 °F 54% 30.10 in 10.0 mi East 4.6 mph - N/A   Overcast
11:35 PM 34.9 °F 29.0 °F 20.5 °F 56% 30.12 in 10.0 mi ESE 6.9 mph - N/A   Overcast
11:55 PM 34.7 °F 28.8 °F 21.0 °F 57% 30.11 in 10.0 mi East 6.9 mph - N/A   Overcast